RH
24 24 24 24 25 24 23 23 22 22 23 25 24 25 33 43 49 48 42 36 31 27 24 21 20 20 27 35 44 57 67 69 68 61 48 32 20 15 12 12 13 13 13 13 13 12 11 11 10 11 10 11 12 12 13 14 15 16 18 19 19 22 24 27 28 38 62 62 57 75 96 98 77 57 47 40 39 39 40 39 38 40 39 36 37 37 37 33
26 27 28 28 27 26 27 26 26 27 28 29 32 43 53 55 49 42 36 32 29 26 24 24 29 37 48 56 63 69 69 60 47 32 19 14 13 13 13 13 13 14 15 14 14 13 12 11 10 11 11 13 12 14 15 14 17 19 21 21 22 25 25 34 43 52 70 84 89 96 103 95 73 53 45 50 57 59 55 49 48 44 41 43 46 49 45 33
29 31 32 32 31 31 30 31 36 39 42 47 52 58 57 51 44 39 37 36 35 34 35 41 50 55 59 63 64 58 45 30 19 14 13 14 14 14 14 14 16 17 17 16 14 12 11 11 11 12 12 13 14 16 16 19 22 20 22 29 32 30 38 63 75 79 92 103 103 99 98 83 60 50 62 83 85 73 62 54 54 53 56 60 63 69 60 49
35 37 39 42 42 43 46 56 65 64 63 69 71 66 59 52 45 42 47 50 51 51 51 56 59 58 57 52 42 29 18 13 14 14 15 14 15 16 17 19 20 19 18 17 15 13 12 12 12 11 12 15 17 19 21 24 24 27 35 43 49 51 65 92 95 92 101 101 94 98 98 71 49 60 84 94 81 68 65 66 72 80 85 85 88 94 88 83
49 55 64 65 59 65 77 90 93 81 76 83 86 77 61 51 50 57 65 63 57 55 56 55 50 45 38 28 18 14 14 15 16 16 17 17 19 21 22 23 22 20 19 16 14 14 13 12 12 13 16 18 19 23 26 26 36 49 52 57 74 85 89 100 100 97 102 98 94 103 94 63 60 80 86 77 74 77 82 88 95 99 100 100 100 101 99 100
83 86 90 84 77 88 98 101 97 90 89 90 84 71 59 59 64 66 63 57 52 49 45 37 29 23 17 14 14 16 17 17 18 19 20 21 23 24 25 25 23 21 18 16 15 14 13 13 16 19 18 18 24 30 27 34 63 78 73 82 99 102 100 103 103 100 102 100 98 102 87 70 80 85 73 72 85 95 97 100 101 100 100 101 101 100 100 101
105 97 95 90 92 101 102 99 95 92 89 81 74 71 70 67 61 55 50 48 42 33 26 19 16 15 15 17 18 19 20 20 21 22 23 24 24 24 26 25 23 22 19 17 17 17 18 18 22 25 19 19 29 34 33 48 81 96 94 101 104 99 101 102 102 100 100 100 99 102 95 86 87 79 74 87 96 100 101 100 100 100 101 100 100 100 100 99
101 94 95 96 100 101 96 91 88 86 82 78 78 75 68 58 50 47 41 33 24 19 17 17 17 18 19 20 21 23 24 23 23 25 24 24 24 24 25 26 27 26 21 19 23 25 26 25 24 25 24 24 28 36 50 66 84 100 103 101 100 100 101 100 100 99 97 100 101 105 104 95 93 90 93 99 99 101 99 99 101 100 100 100 100 100 99 99
98 97 99 101 100 95 89 87 86 84 78 75 71 62 54 48 42 34 25 20 18 18 19 19 20 21 21 24 27 29 30 26 25 26 25 26 28 26 27 31 33 30 23 23 29 32 32 33 28 28 37 41 41 51 70 82 88 99 102 98 100 100 101 100 96 94 98 103 102 103 103 98 99 102 100 98 98 101 99 99 101 99 100 100 99 100 100 101
99 99 100 102 100 94 88 87 86 79 70 63 57 51 45 36 28 21 19 20 20 20 21 22 24 23 24 29 33 35 34 28 25 28 29 29 29 29 33 35 37 35 26 25 36 36 36 41 36 36 48 51 58 74 87 94 95 98 100 100 102 99 99 96 88 94 102 102 100 100 101 100 101 100 99 99 99 101 101 99 100 100 100 100 100 101 100 101
100 100 101 99 97 96 92 89 83 70 61 55 49 41 32 24 21 21 21 21 21 23 24 24 27 27 28 33 36 37 36 31 30 31 31 31 31 34 38 37 41 41 29 31 48 47 47 51 40 50 64 52 63 89 97 99 99 99 101 98 95 93 91 87 91 100 101 99 100 100 100 100 101 99 100 100 100 103 102 99 100 100 100 100 101 100 100 100
101 103 102 93 93 100 95 88 77 63 55 48 40 30 23 22 23 22 22 23 25 25 26 28 32 33 31 34 37 37 36 35 34 32 32 34 35 36 39 41 45 44 39 49 61 61 72 72 55 75 89 63 64 92 101 101 99 98 98 94 91 91 89 91 99 102 99 100 100 100 101 100 100 100 99 100 100 101 100 100 101 100 100 101 100 100 100 100
101 105 101 90 96 103 94 83 71 59 50 40 30 24 23 24 23 24 24 25 26 27 30 32 35 34 33 36 38 37 36 37 36 35 34 36 39 38 41 53 60 59 59 68 68 64 77 80 73 91 100 74 60 75 94 100 98 98 98 99 99 97 97 100 103 101 100 101 100 100 100 99 100 100 100 100 100 100 99 100 99 100 101 100 100 101 100 99
101 104 101 98 103 102 90 76 64 55 45 33 26 24 24 24 25 26 27 28 29 30 32 33 36 36 36 38 39 38 37 37 39 39 35 37 41 39 45 64 79 81 79 79 77 72 69 67 78 95 97 82 63 60 82 96 99 104 104 102 101 100 101 103 102 101 101 101 101 101 100 100 100 100 100 99 99 100 100 99 98 99 99 100 100 99 100 99
99 102 105 105 102 96 83 69 60 52 39 29 25 25 25 26 28 30 30 31 31 33 35 36 38 38 38 40 39 39 41 41 43 42 38 40 41 40 52 69 77 86 90 86 85 86 76 64 76 97 92 80 70 62 70 88 101 105 103 101 100 100 100 100 100 100 100 100 100 101 100 100 100 100 100 100 100 100 100 100 99 100 99 99 100 100 101 100
102 105 105 98 91 86 77 67 59 47 32 26 26 27 28 29 30 32 33 34 35 37 39 41 40 41 43 41 41 44 46 45 44 42 42 45 45 47 63 77 75 79 87 85 84 87 83 73 77 93 92 77 70 64 60 78 99 103 100 100 100 100 100 100 100 100 100 100 100 101 100 100 100 100 99 99 101 100 101 102 102 104 103 100 101 102 102 102
106 98 87 79 78 79 73 65 53 38 29 26 28 30 29 30 31 33 35 36 38 39 41 43 42 45 48 43 46 49 47 46 44 47 50 48 50 54 64 80 84 81 81 79 80 82 81 80 77 78 85 78 65 60 59 74 95 102 101 101 101 100 100 100 100 101 100 99 100 100 99 99 99 99 100 100 100 100 103 105 103 104 104 100 100 101 100 101
100 85 76 77 80 77 67 56 41 31 27 27 36 39 31 31 33 34 37 39 40 39 40 43 44 47 49 44 47 48 45 48 50 53 55 51 53 58 58 71 82 78 78 79 76 77 79 82 75 65 73 76 64 57 60 72 92 103 101 100 101 101 100 100 100 101 100 100 100 100 100 100 100 100 99 99 100 99 99 101 100 103 104 97 96 99 99 99
91 84 88 88 82 69 54 42 32 29 26 30 45 47 35 32 34 34 37 39 41 41 42 45 47 49 47 44 46 46 46 52 54 54 57 54 55 62 62 67 72 61 59 66 62 62 69 71 66 59 62 67 63 56 60 74 91 100 98 98 100 100 100 100 100 100 100 100 100 101 99 96 99 101 100 102 103 99 95 92 89 90 89 82 87 93 92 93
86 91 94 82 67 53 41 34 29 27 27 36 46 43 35 34 34 34 37 40 43 43 44 47 50 50 47 46 46 47 48 48 51 53 54 54 54 64 72 69 65 52 43 46 43 39 46 52 53 53 56 57 56 54 61 75 86 92 93 99 103 101 100 100 100 100 100 101 100 101 97 89 94 100 100 100 98 94 91 88 84 83 78 73 82 88 89 96
90 97 85 64 51 42 35 31 28 27 32 41 44 37 34 35 34 34 39 42 41 41 44 46 47 46 43 42 43 44 46 46 51 53 51 54 55 63 74 67 57 50 41 36 31 24 25 34 42 47 48 49 52 53 57 65 75 83 91 104 105 97 97 98 97 99 99 100 99 100 97 86 84 87 86 83 83 85 83 81 81 81 79 78 82 86 85 88
99 91 67 50 43 38 32 28 28 31 35 40 43 38 35 35 34 35 38 39 39 40 43 44 43 41 39 39 39 42 45 47 51 51 48 53 56 60 70 65 49 46 47 41 33 24 17 22 34 40 40 41 47 51 51 55 66 77 88 101 97 88 94 97 95 97 99 100 99 99 98 90 80 74 72 72 78 83 79 78 76 64 59 60 63 66 65 63
96 71 51 45 41 35 30 27 29 32 34 39 44 42 36 35 35 34 36 38 40 40 40 42 40 38 38 37 38 41 44 46 48 49 49 51 53 54 64 64 47 43 50 49 42 33 23 21 28 36 38 37 44 48 48 51 61 73 86 95 90 83 89 92 93 97 99 99 100 99 98 97 91 82 76 75 82 85 78 83 87 76 69 66 58 54 55 57
78 54 46 43 38 32 28 27 30 32 34 40 45 42 35 34 35 34 37 40 40 38 38 40 38 36 37 37 39 40 41 43 46 48 50 52 51 49 58 65 52 41 43 47 50 45 34 28 31 40 42 40 45 49 51 54 60 71 87 95 92 87 80 76 84 97 101 99 100 100 99 99 99 93 87 84 88 93 90 92 96 90 87 80 63 51 54 62
58 49 46 41 35 29 28 29 32 34 37 41 42 38 34 34 35 36 39 40 37 38 40 39 37 37 38 38 39 39 39 40 41 44 46 50 51 49 55 63 56 46 42 43 49 51 45 38 36 42 47 46 48 52 57 61 61 68 86 97 98 94 79 64 71 90 102 102 99 100 100 99 99 94 87 84 87 92 90 84 78 69 64 61 54 47 49 56
51 49 44 38 32 27 30 32 34 37 39 41 38 34 34 35 36 38 38 38 38 40 40 38 37 37 38 39 38 39 40 39 39 41 42 45 47 48 52 56 53 48 45 43 44 47 51 50 46 45 47 47 48 56 65 67 64 65 75 89 96 95 82 66 64 77 93 98 97 99 100 99 97 89 78 75 77 77 72 64 57 50 45 45 45 42 42 45
50 48 42 34 29 28 31 33 37 40 41 41 37 34 36 36 36 38 38 40 42 42 41 40 39 39 40 39 39 39 40 41 41 41 41 42 43 42 45 49 50 47 46 46 46 46 47 50 52 52 54 54 49 51 62 70 72 69 68 74 83 88 84 74 65 66 74 81 84 89 95 96 94 85 71 63 62 62 60 58 56 54 54 59 62 63 63 61
50 45 38 31 28 29 30 34 39 42 44 42 37 35 36 37 38 39 40 43 44 43 43 43 41 41 43 43 42 42 41 41 41 42 42 42 42 41 40 43 46 48 50 50 49 48 46 46 49 50 58 69 66 55 54 61 68 71 73 72 72 76 78 75 70 66 66 69 70 77 87 92 95 92 82 72 68 67 69 70 72 75 79 85 89 91 92 90
49 42 34 27 27 30 32 36 40 42 45 43 36 36 38 39 40 40 42 45 45 45 45 45 45 44 46 49 48 46 43 41 41 41 41 42 43 43 41 41 41 44 49 50 49 49 48 48 49 45 49 64 73 67 60 56 55 59 70 77 75 74 74 74 72 69 67 67 67 72 81 87 93 99 99 95 92 89 88 90 92 94 97 101 102 103 104 102
45 37 30 27 29 34 36 40 44 45 47 44 36 36 40 40 41 42 45 46 46 46 46 47 47 47 49 53 52 49 47 45 43 42 41 42 43 42 42 42 41 40 42 45 49 50 49 49 51 52 52 56 61 64 63 60 57 55 59 67 71 73 74 76 76 73 70 70 71 73 77 82 86 90 92 92 90 87 86 89 89 88 92 97 98 98 95 88
40 32 28 29 32 36 39 42 46 47 49 45 36 36 41 41 42 44 45 45 46 47 47 47 47 49 52 53 51 50 50 49 47 46 44 43 42 42 42 42 43 43 40 42 45 47 48 49 49 51 55 57 57 58 59 58 58 58 56 56 60 61 62 65 67 68 68 69 70 71 72 76 80 81 80 78 75 72 72 74 72 70 72 75 76 74 71 66
34 29 27 29 33 38 40 42 47 48 45 39 35 37 40 40 41 43 43 44 46 46 45 45 46 49 50 48 47 49 50 49 49 49 47 46 44 42 42 41 42 42 41 42 42 42 44 46 46 48 50 54 56 55 54 53 56 59 55 51 53 56 56 58 61 65 67 68 66 65 65 67 70 71 69 66 64 63 64 65 65 63 60 58 57 55 53 51
31 28 26 31 35 39 41 40 45 48 40 32 33 38 39 39 40 42 42 42 43 42 42 45 45 45 45 45 46 48 49 48 49 50 49 48 47 44 42 41 40 41 42 43 42 42 43 42 43 45 45 47 48 48 48 50 56 60 57 53 52 54 55 56 59 64 67 66 63 62 61 60 60 59 58 57 58 62 64 64 62 58 53 49 46 43 41 40
31 27 26 33 37 39 40 38 45 55 47 33 32 36 38 39 40 40 41 41 40 39 41 44 43 43 45 44 45 47 48 48 49 49 48 49 48 45 43 41 40 41 42 42 42 40 41 42 41 42 42 42 43 45 46 48 53 57 60 61 60 60 59 55 56 58 59 60 57 54 54 54 53 52 52 55 56 58 57 55 52 47 45 43 42 40 39 41
30 27 28 34 37 39 39 37 47 60 49 32 30 34 37 39 39 40 42 41 39 39 42 43 42 45 46 43 43 44 45 46 46 46 46 47 47 45 43 42 40 39 39 40 40 39 38 39 39 40 42 42 43 46 46 47 49 53 57 59 58 59 59 56 56 58 62 67 65 57 54 56 57 57 56 54 53 52 49 47 47 46 47 48 49 48 47 48
30 28 29 34 38 39 37 39 48 51 38 28 30 33 35 39 40 41 44 42 39 40 42 42 41 45 46 43 43 43 43 44 44 43 44 44 44 44 43 42 40 38 38 37 37 37 37 37 37 38 39 41 43 45 44 44 45 48 50 51 51 53 54 53 55 57 60 65 64 58 55 55 57 57 55 52 51 52 50 48 48 49 50 54 56 57 54 52
30 28 30 34 38 37 36 44 56 56 40 31 32 34 35 38 40 42 45 43 39 39 43 42 40 43 45 42 42 42 42 41 40 41 42 42 43 43 42 42 40 38 37 36 36 36 36 37 37 37 37 38 40 41 43 45 46 47 49 50 50 50 50 50 52 53 55 56 56 56 57 57 56 56 54 51 52 55 56 57 56 54 55 58 63 65 63 58
31 28 29 34 36 37 38 45 60 63 46 34 34 35 35 37 39 42 46 45 40 38 41 42 40 41 41 40 39 38 37 38 39 40 41 42 42 41 41 41 40 39 37 35 35 35 35 36 36 36 36 37 39 40 43 45 46 48 50 52 52 52 52 52 50 49 52 54 54 54 56 56 56 58 57 55 53 54 58 61 61 59 59 61 64 66 66 62
32 30 30 35 36 37 39 42 55 60 50 42 39 35 33 35 38 40 43 44 39 36 39 41 41 40 39 37 36 35 36 39 40 40 40 40 41 41 40 40 39 39 37 34 34 34 34 35 36 36 36 37 38 39 41 43 44 45 46 48 51 52 53 55 54 51 49 51 53 52 52 52 54 56 57 56 54 53 55 56 56 54 54 55 57 58 59 62
32 30 29 34 37 38 39 41 54 67 62 51 43 36 33 34 36 37 39 39 36 36 38 40 41 41 39 36 34 34 37 40 41 39 38 38 39 40 40 40 39 38 37 35 34 33 34 35 36 37 37 38 40 40 41 42 43 45 46 47 48 49 49 51 53 51 46 45 48 48 48 50 53 55 54 54 55 55 55 54 53 52 52 53 55 56 58 62
31 31 29 32 35 38 39 40 54 74 71 51 40 38 35 33 34 35 37 37 36 36 36 38 42 43 41 35 32 35 38 40 42 41 38 36 37 39 39 39 39 38 37 35 33 33 33 34 37 38 39 40 41 42 43 44 45 46 46 46 47 47 47 49 51 51 47 46 48 49 48 47 49 49 46 47 51 54 55 54 54 55 56 57 58 60 60 60
32 32 30 32 34 37 40 38 47 72 79 57 41 39 36 34 34 35 36 37 36 35 35 37 41 45 45 38 32 35 39 41 44 44 40 37 35 36 38 39 39 37 36 35 33 33 33 34 37 40 41 42 43 44 45 46 47 47 46 46 47 47 46 46 47 49 49 48 50 53 51 47 45 44 44 45 48 50 52 54 55 58 61 61 62 61 61 61
32 33 32 33 34 36 40 38 40 61 76 63 45 42 39 35 36 38 38 38 37 35 35 37 42 47 50 45 37 36 38 41 45 45 43 39 36 35 36 38 38 37 36 35 33 32 32 34 37 40 42 43 44 44 44 45 45 45 45 46 47 47 45 43 44 47 48 46 46 51 52 48 45 45 46 47 49 50 52 55 57 59 60 60 61 61 61 62
34 34 33 34 35 34 37 38 37 46 63 63 50 44 43 39 39 42 42 40 39 37 36 38 44 48 50 50 46 42 40 42 43 45 44 41 36 34 35 37 38 36 35 34 32 31 32 34 37 41 44 44 44 43 43 44 45 45 45 45 46 47 44 42 42 45 47 45 42 45 48 47 46 47 47 45 46 48 50 51 53 55 57 58 59 59 58 59
35 35 34 35 37 36 34 37 37 37 51 63 55 45 45 43 42 44 45 44 42 41 39 40 43 46 48 49 49 46 45 45 44 44 44 40 36 34 34 36 37 36 35 34 32 31 32 34 37 40 43 43 41 41 41 42 44 45 45 45 46 46 43 41 42 46 48 46 44 44 44 42 44 46 45 42 42 45 48 50 50 52 53 55 56 56 56 57
35 34 35 35 38 39 36 36 37 35 42 55 55 47 43 44 44 45 47 48 47 45 43 42 42 44 45 46 48 47 47 46 45 44 41 38 36 34 34 36 37 36 35 33 32 31 32 34 37 39 42 40 38 38 40 41 42 43 45 46 46 45 43 40 41 46 48 45 43 42 41 41 42 42 42 41 40 43 47 50 51 52 52 52 54 56 57 57
36 34 35 36 38 39 39 37 37 36 38 46 51 47 42 43 45 46 47 47 47 47 45 45 44 43 44 46 47 46 45 44 43 41 39 37 35 34 35 36 37 37 35 33 32 31 32 35 37 40 42 40 38 39 40 40 41 42 44 46 47 46 45 42 42 44 47 46 44 41 39 40 42 43 43 44 44 45 46 48 49 50 52 52 53 54 55 58
37 36 38 42 41 40 41 40 39 40 40 41 45 44 43 44 44 46 47 46 45 46 45 45 45 44 44 45 45 44 43 42 41 39 38 37 35 34 34 35 36 36 35 33 31 31 32 35 37 40 42 41 40 41 42 42 42 43 45 46 47 48 46 44 43 43 45 47 47 46 43 42 44 47 48 49 50 51 50 50 50 51 52 52 53 55 59 63
38 39 41 45 45 42 42 42 41 41 41 40 42 43 44 44 45 47 48 47 47 46 45 44 44 44 44 45 45 44 42 42 41 39 37 36 34 34 33 34 36 37 34 32 31 30 32 35 38 40 41 40 40 42 43 43 43 44 46 47 48 50 49 47 44 43 44 45 46 48 49 48 49 53 54 53 53 54 55 54 54 54 55 55 58 61 64 69
39 39 40 41 42 41 41 43 42 42 40 40 43 47 48 48 47 48 48 48 48 47 45 44 43 42 43 44 44 43 42 42 41 39 37 36 34 34 34 35 36 36 34 32 30 30 31 35 38 40 40 39 40 41 42 44 45 45 46 47 48 50 51 51 48 44 42 43 43 45 48 51 54 57 58 56 55 57 58 59 58 59 60 63 67 71 75 80
44 40 41 40 39 40 42 46 47 45 43 43 44 47 51 53 53 52 52 50 49 47 46 45 44 42 41 41 42 42 41 41 40 39 38 36 35 34 34 35 35 35 35 33 30 30 31 34 37 39 39 38 38 39 40 43 46 47 47 47 47 46 46 48 49 47 45 44 42 42 44 48 52 56 58 57 57 58 60 63 67 69 70 75 80 83 84 84
54 42 42 42 41 43 45 46 46 45 44 43 43 46 51 55 58 60 59 54 50 48 47 46 45 43 41 40 40 40 40 40 40 39 37 35 35 34 33 34 34 35 34 33 31 30 31 33 35 38 39 38 38 39 40 42 45 48 48 47 46 45 45 45 47 48 47 46 44 42 41 43 45 49 53 53 54 56 58 62 68 72 74 76 78 79 76 73
Wind_Speed
51 52 52 52 53 54 54 55 56 56 56 55 54 53 50 47 46 47 50 55 59 63 67 69 70 68 65 65 68 72 75 79 83 86 88 86 82 77 72 66 61 55 51 46 43 41 40 39 38 37 36 34 33 32 31 31 30 30 31 32 31 30 30 29 28 28 24 24 29 27 25 29 29 30 30 30 29 27 26 26 26 26 26 27 30 31 32 34
43 42 41 41 42 42 42 42 40 39 38 38 38 38 37 37 40 44 48 51 54 57 58 59 59 60 63 67 71 75 78 82 83 81 77 72 67 62 58 53 48 45 42 40 38 36 34 33 31 28 26 25 23 22 22 21 21 23 23 22 23 24 24 23 24 25 21 22 26 19 17 22 22 22 22 22 22 22 23 23 24 25 26 27 29 30 31 32
33 31 30 29 29 29 28 27 27 26 27 28 29 30 32 34 38 41 43 46 49 51 54 56 59 62 65 69 73 76 77 74 69 64 60 56 52 49 46 43 41 39 38 36 34 31 28 26 23 22 19 15 14 14 13 13 16 19 18 16 17 20 23 25 25 23 22 27 25 16 17 20 20 20 21 21 21 21 22 23 23 24 24 25 25 25 27 28
23 21 20 19 20 19 18 18 19 20 21 23 25 27 30 33 37 40 43 45 48 51 54 57 60 64 67 70 70 67 61 55 51 48 45 43 41 40 39 38 36 34 32 29 27 24 21 18 15 14 11 8 9 9 10 13 16 17 17 19 21 24 28 28 26 23 24 29 23 16 21 21 21 22 23 23 22 21 22 22 22 20 20 20 20 20 21 23
18 17 17 18 17 15 12 13 16 18 19 20 23 26 31 34 38 40 43 46 48 51 55 58 61 64 64 61 55 49 44 40 38 36 35 34 34 34 33 32 30 27 24 21 18 16 16 13 8 6 6 8 9 11 14 18 21 22 23 26 29 30 30 28 27 27 27 28 22 20 24 23 23 22 22 23 22 21 22 20 18 17 18 19 19 18 18 18
19 19 20 19 15 12 12 15 17 17 18 20 24 28 32 35 37 39 42 45 48 52 55 57 57 54 49 42 37 34 32 30 29 29 28 27 27 26 26 25 23 20 17 14 10 8 7 4 3 3 6 9 12 15 20 25 30 31 32 34 33 32 32 32 30 29 28 27 25 23 25 25 22 21 23 23 21 20 18 17 17 18 18 19 19 17 15 13
22 22 20 16 13 14 16 16 16 16 19 23 27 29 31 33 35 38 42 46 49 50 50 47 43 37 32 28 25 24 24 24 23 22 22 21 21 20 19 18 17 15 12 10 8 9 9 7 4 2 6 9 16 20 24 32 39 40 39 38 35 33 34 34 30 27 28 28 25 23 24 24 22 23 24 22 20 18 16 16 18 19 18 18 17 15 14 14
23 20 16 14 14 16 16 16 16 18 22 24 25 27 29 32 35 39 42 44 43 41 37 33 28 24 21 19 19 20 21 20 18 19 19 17 17 16 15 14 13 12 9 9 13 14 12 8 4 7 7 9 15 22 29 37 44 45 41 37 34 32 32 30 28 27 28 26 23 23 23 24 25 25 24 20 16 13 13 16 18 18 17 17 16 14 13 14
21 18 17 17 17 16 16 15 16 18 20 21 22 25 29 33 36 38 38 35 33 30 26 22 19 17 15 15 18 20 20 18 17 20 20 17 14 13 13 12 11 10 7 12 17 14 12 9 5 10 14 15 19 27 37 42 46 44 39 36 32 31 30 27 28 29 28 26 25 26 26 27 27 25 25 22 14 9 11 16 18 17 17 17 15 12 10 11
21 21 20 18 17 16 15 14 14 15 17 20 23 26 30 33 33 32 29 27 25 21 18 15 14 14 13 16 19 20 20 19 21 24 23 19 15 14 15 13 12 10 6 13 19 15 14 12 8 15 21 26 31 37 44 45 44 41 36 34 30 31 31 28 30 31 29 28 29 29 29 28 27 25 26 25 20 14 15 17 17 16 16 16 14 11 9 9
24 22 20 18 17 15 14 12 12 14 18 21 24 27 30 30 27 25 23 21 18 15 13 12 13 14 14 17 19 20 22 23 25 27 26 23 18 18 17 15 15 13 10 18 20 15 15 13 12 19 25 31 38 43 45 43 41 37 31 30 29 29 30 30 31 30 29 30 31 31 30 28 26 26 26 25 23 19 16 15 15 15 16 15 13 10 8 9
25 21 19 18 17 14 12 10 13 16 19 21 24 27 26 24 22 20 18 15 13 11 11 12 14 14 14 17 19 20 23 26 28 30 30 27 23 20 20 18 16 14 17 22 19 14 16 14 16 24 29 31 37 43 42 37 35 32 27 25 25 26 28 30 30 30 30 31 31 31 29 27 26 26 24 21 19 15 14 13 12 12 14 12 9 6 6 9
23 20 19 18 16 12 9 11 14 17 20 22 24 23 21 19 18 15 13 10 9 9 10 12 13 14 15 18 19 21 24 28 30 32 33 31 28 25 24 22 19 16 18 21 17 15 16 17 22 29 30 31 34 40 40 35 31 28 26 25 23 24 27 29 30 30 31 31 32 31 29 27 26 25 22 18 15 14 14 14 12 11 11 9 7 4 5 7
24 21 19 17 13 9 10 13 15 18 20 22 21 18 16 16 15 11 9 8 8 9 10 12 13 15 17 19 20 22 25 28 32 34 35 35 33 32 30 26 21 17 14 16 16 16 14 17 26 30 31 30 31 36 39 35 32 31 31 29 24 24 26 28 29 30 29 29 30 30 28 26 25 23 20 18 16 16 16 15 15 15 14 12 9 8 7 8
24 20 16 12 10 9 11 13 16 19 19 19 16 13 14 13 10 7 6 7 9 11 12 13 14 16 18 19 21 24 27 30 32 34 36 37 37 37 36 30 22 18 13 12 14 15 13 16 24 29 30 30 30 33 37 38 39 38 35 31 26 24 26 27 28 29 28 26 26 26 26 25 23 21 20 18 16 16 16 16 15 17 19 18 15 14 13 13
20 15 11 10 11 11 12 15 16 17 17 14 11 10 11 9 5 5 6 8 11 12 13 14 15 17 19 19 21 25 28 30 31 34 38 39 40 41 39 34 26 19 14 12 13 14 14 16 21 27 28 29 29 31 36 42 45 42 37 32 30 29 28 27 28 29 27 23 23 24 24 23 21 19 19 18 17 17 18 17 16 17 20 20 18 18 17 17
18 14 14 13 13 13 14 14 14 14 13 8 6 8 8 5 3 5 7 9 11 11 13 14 16 18 19 19 22 24 26 29 32 36 38 39 42 43 40 37 30 20 14 10 10 11 13 16 19 24 28 28 29 30 37 44 47 42 38 36 35 34 33 30 29 29 26 23 23 25 24 23 21 19 20 19 19 19 20 20 16 16 20 20 18 18 18 19
19 18 16 14 13 13 11 10 11 12 8 4 5 6 5 4 3 5 8 10 10 11 13 15 16 17 17 19 22 24 27 31 33 35 36 38 42 44 42 40 34 23 15 10 7 8 12 16 19 23 27 29 29 31 38 45 45 42 39 40 39 38 35 31 29 27 26 26 26 26 26 25 22 19 20 20 19 20 21 22 19 17 21 22 18 15 16 18
20 17 13 11 10 9 7 8 10 8 4 4 5 5 4 2 3 6 9 10 10 11 13 15 15 16 17 19 22 25 28 30 31 33 35 37 41 45 45 43 37 29 21 15 9 6 13 17 20 22 25 29 30 32 38 43 44 43 42 42 41 38 35 33 30 28 29 29 28 26 26 26 24 20 19 19 18 19 21 22 22 21 22 23 19 15 15 17
18 13 9 9 7 5 4 8 7 3 2 3 4 3 3 2 4 7 10 11 10 11 14 15 15 15 16 19 22 24 26 28 31 32 34 36 40 45 46 43 39 34 28 22 16 8 11 18 20 22 24 27 30 34 38 41 43 43 42 42 41 39 37 36 34 31 31 30 28 26 25 26 24 21 20 20 18 18 19 20 21 21 23 24 21 16 15 16
15 11 9 8 5 2 5 6 2 1 2 3 2 2 2 3 5 8 12 11 10 14 16 15 15 15 16 19 21 24 26 29 31 31 33 37 40 44 44 42 39 37 34 29 23 14 7 15 19 21 23 26 30 35 37 39 41 43 42 42 43 42 39 38 35 33 32 30 27 23 22 23 24 22 21 21 19 18 18 18 19 20 23 26 24 20 18 18
13 11 10 7 3 1 4 3 3 3 2 2 1 2 2 5 6 10 13 12 14 17 17 16 15 17 19 21 24 27 28 29 30 31 34 37 39 41 42 42 40 38 37 34 28 21 12 9 17 20 21 25 30 34 35 36 40 42 43 43 43 41 39 36 35 34 32 29 26 22 20 19 21 22 22 20 19 17 17 16 16 20 23 27 28 26 24 24
14 12 9 5 2 3 4 4 5 4 3 2 1 2 4 6 8 12 15 16 17 17 17 17 17 19 22 25 28 29 30 30 31 31 34 36 38 39 41 41 41 39 37 34 31 26 19 12 13 16 18 23 29 32 32 34 37 40 41 40 39 38 38 37 36 35 32 30 27 23 21 19 18 20 21 19 17 16 16 14 13 16 20 23 25 26 25 24
15 12 8 4 1 3 4 6 5 4 4 3 4 5 7 9 11 15 18 18 17 18 20 19 20 22 25 28 30 31 31 32 32 33 34 35 36 38 40 41 40 40 38 35 33 29 24 18 16 17 18 22 26 28 29 31 34 37 37 36 35 34 36 37 37 36 33 31 29 26 24 22 20 21 21 20 18 16 16 16 16 18 19 21 24 25 23 23
15 11 7 4 2 3 6 7 6 6 5 5 6 8 10 13 15 17 19 18 18 21 22 20 22 25 28 30 30 31 32 32 33 34 35 35 35 36 39 39 37 39 40 38 36 31 28 24 20 19 19 21 24 26 27 28 30 33 34 34 33 32 33 35 37 36 33 32 31 29 26 24 22 23 23 22 20 19 19 19 21 22 22 22 24 23 21 22
14 10 7 4 5 7 9 8 7 7 6 7 9 11 13 15 17 19 20 20 21 23 21 21 24 27 29 30 30 32 33 32 34 34 35 36 35 35 36 36 35 36 38 39 39 36 32 28 23 20 18 17 20 23 25 26 27 30 32 33 32 31 32 33 34 35 34 32 31 29 26 24 22 23 23 23 22 21 20 20 21 22 22 22 23 22 20 21
13 9 6 6 8 11 11 10 10 9 9 10 12 14 15 16 18 19 21 21 22 22 21 23 25 28 31 31 32 34 33 33 34 34 35 36 35 35 35 36 35 36 37 39 40 39 35 31 27 23 20 16 15 18 22 22 23 26 29 32 32 31 31 31 31 33 34 33 32 29 27 25 23 23 24 24 23 22 21 21 21 22 22 23 24 23 22 22
12 9 7 8 10 11 10 11 11 11 11 12 14 15 16 17 17 19 21 22 21 21 22 23 25 28 31 32 33 34 33 33 34 34 35 36 35 35 35 35 35 36 37 37 37 37 36 35 31 26 24 20 14 13 16 18 19 22 26 29 30 30 30 29 29 30 31 31 31 30 29 27 25 24 24 24 24 24 23 23 24 24 25 25 24 23 23 24
12 9 8 9 11 11 10 11 11 12 12 13 16 17 17 17 17 18 21 21 21 22 23 24 25 28 31 32 32 32 32 33 35 35 36 36 35 35 34 34 34 35 34 34 34 34 34 34 32 30 28 24 18 13 11 12 14 17 23 27 28 28 29 28 27 28 28 29 30 30 30 29 28 26 25 24 24 24 25 25 25 26 27 27 26 25 25 26
12 9 9 11 13 12 12 13 12 13 14 15 17 18 18 18 18 19 21 20 20 21 22 23 25 28 31 32 30 30 32 33 34 36 36 37 36 34 34 34 34 33 32 32 33 32 31 31 30 30 30 27 23 18 14 10 9 10 16 22 24 25 26 27 27 27 28 28 29 29 30 30 29 29 28 28 28 27 27 27 27 26 27 27 27 27 26 27
12 10 12 15 15 14 14 15 15 15 15 16 17 19 19 18 18 19 19 19 20 20 21 22 25 28 30 29 28 29 31 32 33 35 36 37 36 34 34 34 33 31 31 32 31 29 29 28 27 27 28 27 25 22 19 15 13 10 8 11 15 18 20 22 23 24 25 26 28 29 30 31 31 30 30 30 30 28 27 27 27 27 27 27 27 26 25 24
13 12 15 16 15 15 16 16 17 17 16 17 18 19 19 18 19 19 17 18 19 18 19 22 24 26 26 26 27 29 30 31 33 34 35 36 35 35 34 33 31 30 31 31 29 28 27 26 25 25 25 24 23 22 20 19 18 15 11 8 8 9 11 12 14 15 16 18 21 24 26 28 29 29 29 28 27 25 24 24 24 24 24 23 22 21 19 17
14 14 16 17 16 16 17 16 18 19 18 17 18 19 18 18 18 18 17 18 17 16 19 21 22 23 24 25 27 28 29 30 32 33 33 34 34 34 34 33 32 31 31 30 28 27 26 24 24 23 22 21 20 19 19 19 19 17 15 12 10 8 6 6 7 8 10 12 15 17 19 21 22 23 23 22 21 19 18 17 16 16 15 14 14 13 11 9
15 15 17 18 17 17 17 18 20 20 18 18 18 18 18 17 16 17 17 16 14 15 18 19 19 22 23 23 25 27 28 29 30 31 32 33 33 33 33 33 32 31 30 29 27 26 25 23 22 21 20 19 18 18 17 17 16 15 14 13 12 11 9 7 5 3 3 5 7 9 11 12 13 13 13 12 11 10 9 8 8 8 7 7 8 8 7 6
16 17 18 18 18 17 18 20 20 19 18 18 18 18 18 17 15 15 16 14 13 14 15 16 18 21 21 21 23 25 26 28 29 30 31 32 31 32 32 32 32 31 30 28 26 24 24 23 21 20 19 18 18 17 15 15 14 13 12 11 10 10 9 8 7 6 5 4 3 3 5 6 7 7 7 7 6 5 5 5 6 6 6 6 7 8 8 8
17 18 19 19 19 18 19 20 20 18 18 18 17 17 16 15 14 14 14 12 11 13 13 14 17 19 19 19 21 23 25 26 27 28 29 30 30 31 31 32 32 31 29 28 26 24 24 23 21 20 19 17 16 15 13 13 12 12 11 9 8 7 5 5 5 5 5 4 4 4 4 5 6 7 7 7 6 6 6 7 7 7 7 7 9 11 12 12
18 19 20 20 19 18 20 21 20 18 17 17 15 15 15 14 13 13 12 10 9 11 11 11 15 17 17 18 20 22 23 25 26 27 29 29 30 30 31 31 32 31 30 28 27 25 24 22 21 19 18 17 15 14 14 13 12 11 10 9 8 6 4 3 2 2 3 4 4 5 6 6 7 7 7 7 8 8 8 9 10 10 10 10 11 14 15 16
19 18 20 20 19 19 20 21 19 18 17 16 14 14 14 13 12 12 10 8 7 8 9 10 13 14 15 16 18 20 22 24 25 26 28 28 29 29 30 31 31 31 30 29 27 26 24 22 21 19 18 16 15 14 13 12 11 10 9 8 7 6 5 4 2 1 0 2 4 5 7 8 8 8 9 9 9 10 10 12 12 12 11 11 12 13 15 17
20 20 21 21 20 19 20 20 19 18 17 15 14 13 13 12 11 10 9 7 6 6 7 8 10 12 13 15 16 18 21 23 24 25 26 27 27 28 29 30 31 31 30 29 28 26 24 23 21 19 17 16 15 13 12 11 10 9 8 7 6 4 4 3 3 3 2 2 4 5 6 7 7 8 9 10 10 10 11 12 13 12 12 11 12 13 13 15
22 21 21 21 21 20 20 20 19 17 17 16 14 13 12 12 11 10 8 6 5 5 6 7 8 10 11 13 14 17 19 21 22 24 24 25 27 28 29 30 30 30 30 30 29 27 26 24 22 19 18 16 15 14 13 12 11 10 9 8 6 5 4 4 5 6 6 5 5 6 7 7 8 9 10 10 11 11 12 13 13 13 13 13 13 14 15 15
22 21 20 21 21 20 20 21 19 16 15 15 14 13 12 11 11 10 8 6 4 4 4 5 7 9 10 11 12 15 17 19 21 22 23 25 26 27 28 29 30 30 30 30 30 28 27 25 23 20 18 17 16 15 14 14 13 12 11 9 8 7 6 5 5 7 8 7 7 9 9 9 10 11 11 10 10 12 13 14 15 15 15 16 16 17 17 18
23 21 21 21 21 21 21 21 19 16 15 15 14 12 12 12 11 10 8 6 4 3 3 4 6 7 8 9 11 13 15 18 20 21 23 24 25 27 28 29 30 30 30 31 30 30 28 26 24 21 19 17 16 16 15 14 13 12 11 10 9 8 7 6 5 6 7 7 7 9 11 11 11 11 11 11 11 13 14 15 16 16 17 18 18 19 19 19
24 22 21 21 22 23 22 20 19 16 14 15 15 13 11 11 10 9 8 6 5 3 2 3 4 5 7 8 10 12 14 16 19 20 22 24 25 26 27 28 29 30 30 31 31 30 29 27 25 22 19 18 17 16 16 15 14 13 12 10 9 8 7 7 6 6 7 7 6 7 10 12 11 11 11 11 12 13 13 14 16 17 17 18 19 19 18 18
25 23 23 22 22 22 21 21 21 18 15 14 15 14 12 11 10 9 8 6 5 3 2 1 2 4 6 8 9 11 13 15 17 19 21 23 24 25 27 28 29 30 31 31 31 31 29 27 25 22 20 18 18 17 16 15 14 13 12 11 10 9 9 8 8 7 7 8 7 7 8 10 10 11 11 11 10 10 11 12 13 14 14 15 15 15 15 15
27 25 24 22 22 22 21 21 21 19 16 14 14 15 13 11 10 9 7 6 5 3 3 1 1 3 5 7 9 11 12 14 17 19 21 22 24 25 27 28 29 30 31 31 32 31 30 27 25 22 19 18 17 17 16 15 14 13 12 11 11 11 11 10 9 8 8 9 9 8 8 9 9 9 10 10 8 8 9 9 9 9 10 10 11 11 11 11
28 25 23 23 23 23 22 21 20 19 18 15 13 14 14 12 10 9 7 5 5 4 3 3 3 3 4 7 9 10 12 14 16 18 20 22 23 25 26 28 29 30 31 32 32 32 30 28 25 22 19 19 18 17 16 15 13 12 12 12 12 12 12 12 11 10 9 10 9 9 8 8 8 8 8 8 7 5 4 5 6 7 7 7 8 8 8 9
27 25 23 23 23 22 20 19 19 19 19 17 14 14 14 13 11 10 8 7 6 5 5 5 5 5 5 7 9 10 12 14 15 17 20 22 23 25 26 28 29 30 31 31 32 32 30 28 26 23 20 20 19 17 16 15 14 13 13 13 13 13 13 13 12 11 11 11 11 11 10 9 8 8 8 7 7 5 4 4 4 5 6 6 6 7 7 8
30 28 27 27 26 22 20 20 21 21 20 19 17 15 14 14 13 11 10 9 7 7 6 6 6 6 6 7 9 11 12 14 16 18 19 21 23 24 26 27 29 30 31 31 31 31 30 27 25 22 19 19 18 17 16 15 14 13 13 13 13 13 13 14 14 13 12 12 12 12 12 12 11 10 9 8 8 8 8 8 8 7 7 7 8 8 8 9
33 32 31 31 29 26 23 21 21 22 21 20 19 17 15 14 14 13 12 11 10 9 8 8 8 8 8 9 10 11 13 15 16 18 19 21 23 24 25 27 29 30 31 31 31 31 29 27 24 20 18 17 17 16 15 14 14 13 13 13 13 14 14 14 14 13 13 12 12 11 12 12 12 11 10 9 9 9 10 10 10 9 9 9 8 8 9 10
35 34 33 31 29 26 23 21 21 22 21 20 20 19 17 16 15 15 14 14 13 12 11 10 10 10 10 11 11 12 14 15 17 18 20 21 23 25 26 28 29 30 31 31 31 31 28 26 22 19 17 16 16 15 15 14 14 14 13 13 13 13 13 13 14 14 14 13 12 12 11 11 11 10 10 10 9 10 10 10 10 9 9 9 9 10 11 13
36 36 33 32 29 25 24 25 25 23 22 22 22 22 20 18 17 17 17 16 15 15 14 13 13 12 12 13 13 14 15 16 17 19 20 22 24 25 26 28 29 30 31 32 32 31 28 25 21 17 16 16 15 15 15 15 15 15 15 15 14 13 12 12 13 14 14 14 13 13 12 11 10 10 9 9 9 9 9 9 9 10 10 10 11 12 13 14
38 37 35 34 31 28 27 26 23 23 24 23 23 23 23 21 20 19 19 19 18 17 16 15 15 15 14 14 15 16 17 18 18 19 21 22 23 25 26 28 29 30 30 31 32 30 28 25 20 17 16 16 16 16 16 16 15 15 15 15 15 15 14 14 14 14 14 14 14 14 14 13 12 11 10 10 10 10 9 9 9 10 10 11 12 13 14 16
Wind_Direction
246 246 247 248 250 252 254 256 259 261 263 264 265 267 268 271 272 274 275 276 276 277 278 278 280 282 286 289 291 292 291 291 291 290 290 291 291 291 292 291 290 290 290 290 289 288 285 281 277 273 268 264 259 255 252 249 246 243 241 241 240 236 231 224 219 213 212 221 218 217 236 247 250 251 246 239 236 235 233 233 231 227 224 221 223 224 224 223
243 244 245 247 249 252 255 257 259 260 259 260 261 262 266 269 271 274 276 277 278 279 280 282 286 290 291 291 290 289 289 290 290 290 291 291 292 291 291 291 293 295 296 296 294 291 286 281 276 271 263 257 252 247 246 243 237 230 226 226 224 220 211 198 198 194 188 201 204 204 233 242 241 240 234 228 225 219 219 219 215 214 214 217 221 224 225 222
238 239 241 244 247 248 248 248 247 248 250 253 257 261 266 270 275 279 281 282 283 284 287 290 292 292 291 289 289 289 289 290 291 291 292 292 292 293 295 298 300 301 299 297 294 291 287 281 275 265 255 248 242 233 227 221 216 211 199 193 196 192 179 169 173 171 176 189 189 200 227 227 221 216 211 207 202 202 206 205 204 207 210 215 218 221 223 220
227 225 226 227 226 225 226 233 240 245 250 256 262 266 270 276 281 284 285 286 287 289 291 291 290 290 290 289 289 290 291 293 294 294 295 297 299 301 302 303 302 301 299 296 295 293 285 276 269 261 249 232 217 200 192 191 183 173 163 160 162 162 158 158 162 160 176 182 175 202 220 211 203 199 198 193 189 190 192 193 196 201 206 209 211 211 210 211
198 193 195 196 195 199 215 239 249 251 255 260 265 269 274 279 283 285 287 288 290 291 291 290 290 290 290 290 292 295 298 301 302 303 304 306 307 306 304 302 301 300 299 298 298 290 274 259 264 276 238 206 184 169 173 169 150 138 142 147 146 148 150 153 158 160 175 180 175 199 209 199 193 191 188 181 178 179 179 182 186 189 196 200 201 198 198 204
171 174 176 175 179 201 226 236 241 248 256 262 267 271 275 280 284 287 289 290 291 292 292 292 292 292 293 297 301 306 310 312 312 313 314 314 311 308 304 301 302 304 305 307 310 304 290 282 342 320 230 192 162 166 167 149 133 132 138 140 142 145 148 151 158 166 177 182 183 194 197 189 184 180 176 171 168 168 167 172 177 180 185 190 193 190 189 197
167 167 165 167 183 211 221 224 235 249 259 265 269 274 279 284 287 290 292 293 294 295 295 295 295 298 303 308 313 320 325 323 324 326 323 319 318 316 311 308 312 316 319 329 350 10 15 25 51 171 206 167 155 163 155 139 134 136 138 137 141 147 150 155 161 172 180 181 184 189 187 180 174 170 166 161 159 157 160 168 172 175 175 178 182 180 181 186
162 160 167 183 196 207 215 226 242 255 262 269 275 279 283 287 291 294 296 298 298 297 298 300 304 309 311 320 331 342 343 336 342 345 337 333 335 334 330 330 335 334 343 17 29 30 30 37 95 138 137 139 153 152 142 138 137 135 137 138 142 148 152 159 166 172 176 176 177 175 171 167 163 160 153 145 148 152 160 168 170 169 167 169 170 173 186 192
155 168 184 192 197 207 220 234 248 259 268 275 280 283 288 294 299 301 302 301 300 301 303 308 315 316 322 344 359 5 0 352 0 6 359 355 354 355 1 1 359 352 359 43 50 46 52 61 94 120 120 125 134 138 137 139 138 136 138 140 145 155 157 165 169 166 169 168 162 158 156 156 152 149 143 130 128 156 175 172 166 164 166 167 166 174 192 203
166 179 185 191 200 213 227 239 253 267 274 278 284 291 299 305 307 306 304 303 303 306 312 320 332 334 351 14 20 21 15 9 18 22 16 11 10 19 25 22 23 18 15 60 61 58 69 77 102 121 130 135 134 137 139 139 138 136 139 144 152 161 162 167 165 160 163 160 153 152 150 149 147 147 144 135 138 167 184 173 162 162 169 169 168 177 192 210
176 179 184 195 205 216 226 238 261 275 277 284 295 306 312 312 310 307 305 306 308 317 327 342 358 1 17 31 30 29 25 23 28 30 27 23 24 34 38 36 40 36 46 68 67 68 81 88 112 128 139 143 139 138 139 138 138 136 141 151 157 160 160 161 160 158 159 154 149 148 146 146 149 150 150 149 153 165 172 165 163 167 170 171 172 180 201 218
176 178 188 200 208 213 222 246 273 280 285 298 310 316 317 312 308 306 306 311 319 333 349 8 18 15 25 36 33 32 31 31 33 35 35 33 32 40 45 45 46 46 59 73 78 91 101 107 122 133 143 147 144 139 136 136 139 141 144 152 154 153 155 154 154 154 153 150 146 145 145 147 150 151 151 152 154 158 160 155 161 172 174 172 167 175 207 220
179 186 196 205 207 211 234 264 281 290 300 311 319 319 314 307 304 305 309 321 333 351 10 23 26 21 29 38 35 33 35 35 35 36 37 38 37 41 47 50 51 54 68 83 93 106 120 131 135 142 148 150 150 143 138 138 142 142 141 142 143 144 147 148 149 150 150 147 145 145 145 147 150 150 147 149 154 160 161 152 148 162 171 165 151 157 193 210
187 192 196 200 205 227 256 270 286 297 308 317 321 316 308 303 303 306 320 338 351 8 21 27 29 27 32 38 36 35 36 36 37 36 37 39 39 42 45 49 57 64 79 94 99 106 125 140 142 149 153 154 154 147 141 141 142 141 138 134 132 138 143 146 149 149 148 147 146 147 148 149 152 150 150 155 163 169 168 160 153 152 151 147 142 144 165 187
185 185 186 195 218 248 261 274 289 299 311 320 318 311 305 304 304 316 343 358 9 21 27 29 30 31 34 37 38 39 38 38 38 37 37 38 39 40 40 42 54 71 89 109 111 112 124 138 144 152 158 159 157 151 145 143 142 140 136 131 131 141 147 150 152 150 147 148 151 153 153 154 153 151 157 162 167 174 173 171 169 167 161 156 159 161 168 177
173 177 187 208 235 256 270 281 291 302 314 317 314 310 306 305 316 348 10 19 24 30 33 33 34 35 34 35 38 40 40 39 39 39 38 38 39 39 37 36 42 60 82 112 125 127 134 140 147 155 162 165 163 156 149 144 142 139 137 137 139 144 148 151 153 151 147 150 159 163 159 156 153 155 163 168 171 177 180 180 179 189 186 177 180 186 188 192
174 189 202 219 243 263 274 282 293 306 313 312 313 313 309 314 343 22 32 34 35 38 42 40 38 41 37 36 40 41 42 42 40 40 38 37 40 41 38 36 36 44 63 91 119 134 143 144 153 162 165 170 169 159 151 146 142 141 142 143 144 147 149 150 153 152 149 155 167 169 163 159 159 163 169 174 177 180 187 187 178 191 201 195 195 202 205 211
186 197 209 229 247 260 267 281 299 308 306 297 309 315 318 326 0 46 49 49 45 42 48 45 42 46 43 41 45 43 44 44 42 42 40 38 41 41 39 38 37 40 52 64 94 137 157 156 161 167 167 172 171 161 153 148 145 145 148 149 149 151 150 147 151 153 154 162 171 172 169 166 164 167 174 179 183 186 190 191 183 191 206 204 203 213 220 226
189 199 215 231 238 245 262 294 306 303 287 293 315 315 314 342 38 64 65 62 56 47 51 50 46 47 45 46 49 46 47 48 45 45 43 40 42 42 40 38 37 40 50 54 61 126 169 171 167 168 168 170 170 163 155 150 149 150 152 152 151 151 150 149 154 157 158 163 169 172 176 174 169 169 177 184 191 196 199 202 199 203 212 212 214 228 237 241
189 199 208 210 214 230 287 308 303 285 291 327 338 321 317 32 67 79 76 68 64 60 56 53 50 49 49 52 54 53 53 52 49 47 45 44 45 45 42 39 38 40 46 51 54 86 168 178 168 164 168 170 168 164 159 154 152 152 153 154 155 156 157 158 160 161 159 160 165 171 178 178 175 175 181 188 196 203 208 212 212 214 220 221 225 240 252 255
189 192 191 195 202 247 309 305 271 162 19 5 3 336 5 74 84 85 80 75 72 68 62 59 58 58 59 59 60 59 56 54 52 49 48 47 46 47 45 41 40 41 44 46 48 59 132 173 166 159 164 169 167 164 163 159 154 153 155 159 163 164 163 163 163 160 157 158 162 168 176 180 180 181 185 190 196 205 211 215 219 220 221 224 228 239 249 252
187 185 184 186 180 294 297 253 165 128 73 56 7 343 62 88 89 89 88 83 74 70 68 66 65 65 65 63 62 60 57 56 55 52 51 50 49 49 47 44 42 43 44 43 44 49 67 139 161 156 156 162 165 166 166 161 157 157 159 165 169 168 166 165 164 161 158 159 163 166 173 178 181 186 189 191 195 204 213 220 230 231 227 228 230 235 243 248
181 179 177 167 161 287 262 185 155 130 109 117 139 93 87 94 95 94 90 83 77 76 76 73 70 69 67 64 62 60 59 57 55 53 53 52 51 52 51 47 45 46 47 46 46 47 54 89 138 144 143 153 161 165 165 162 160 161 164 168 171 171 170 168 165 164 162 162 165 167 172 174 180 189 190 189 192 204 215 224 236 238 235 237 239 242 248 255
176 174 166 155 213 266 204 162 142 120 116 128 131 111 103 104 99 93 88 84 84 83 78 74 72 70 68 65 62 61 60 58 56 55 55 54 52 54 54 50 48 49 51 51 50 49 55 76 109 123 130 144 156 163 164 163 163 164 167 169 172 176 177 173 168 167 167 169 170 172 176 178 183 193 195 191 192 201 214 223 230 233 238 248 253 254 257 261
173 165 154 164 225 201 162 147 134 126 129 132 125 116 112 107 98 92 90 91 88 82 77 74 72 69 67 65 63 62 60 59 58 56 56 56 54 54 56 54 51 52 53 54 55 54 57 70 94 115 126 140 154 162 166 168 168 168 170 172 175 179 182 180 174 172 176 178 178 179 183 185 190 200 205 203 202 206 215 224 232 237 242 252 260 261 260 262
165 155 160 192 193 166 151 142 136 132 135 136 125 117 112 106 100 98 96 92 86 80 78 76 73 70 68 66 64 63 60 58 58 57 56 56 55 55 57 57 55 54 56 57 58 57 58 66 82 103 119 133 149 161 168 173 175 173 173 176 180 183 187 187 181 180 185 187 186 187 191 195 201 209 214 216 217 221 228 235 243 250 254 260 265 267 268 270
158 159 180 195 178 163 155 147 142 137 139 137 126 118 113 106 103 101 96 90 85 83 81 77 74 72 69 66 63 62 59 58 57 57 57 56 54 54 56 57 55 54 54 55 58 59 60 63 70 87 102 114 136 157 169 175 178 179 179 181 186 190 193 194 191 189 192 195 196 197 200 204 210 217 222 225 228 233 240 248 254 260 265 269 274 278 281 282
157 172 190 185 169 163 158 149 144 143 144 141 129 122 115 108 104 101 96 91 88 86 81 77 74 72 70 65 62 60 59 58 57 56 56 56 54 52 52 54 54 54 53 53 56 59 61 62 63 71 85 97 110 137 162 175 182 186 188 188 191 196 200 202 201 199 200 202 204 206 209 211 215 223 229 233 237 242 248 254 260 264 268 271 275 279 281 283
165 181 190 177 164 157 151 147 145 146 145 141 132 123 117 111 107 102 96 92 89 85 81 77 73 71 70 66 62 60 58 58 58 56 56 55 54 52 51 52 53 54 55 54 55 56 59 63 64 64 70 80 87 98 128 161 179 188 194 196 198 202 207 211 212 210 209 210 212 214 217 219 222 229 237 244 249 254 258 264 269 272 272 272 274 276 279 281
173 184 178 164 156 152 149 149 150 150 147 141 133 126 120 115 110 102 96 93 89 84 80 77 73 70 68 65 62 60 58 57 56 55 55 54 53 52 51 51 51 52 54 55 54 54 55 59 62 63 65 69 73 76 84 105 136 166 189 199 205 209 214 218 221 222 221 221 223 225 227 230 233 239 245 250 256 262 267 270 274 275 274 273 273 274 276 278
176 174 165 159 155 154 154 152 153 154 151 146 137 129 124 120 113 104 99 95 89 84 81 76 72 68 65 65 64 61 59 56 55 55 54 53 52 50 50 50 50 50 51 54 54 53 53 54 56 60 64 67 69 72 74 79 88 102 141 181 199 211 217 223 228 231 232 232 234 236 238 240 243 247 251 255 260 265 268 270 271 272 272 272 273 273 274 277
173 167 163 160 155 155 156 156 155 155 154 149 140 133 129 126 117 109 103 96 89 85 82 74 70 68 66 66 63 60 58 56 55 54 53 52 51 50 49 49 50 49 50 52 52 51 52 53 53 55 59 64 68 72 76 78 79 80 88 116 156 188 208 219 228 235 239 240 240 241 243 245 247 250 253 256 259 262 265 266 267 268 271 273 273 272 272 273
168 164 162 158 155 156 158 159 156 153 153 150 143 137 134 129 121 114 107 97 92 88 81 74 71 69 67 63 60 59 56 55 54 52 52 51 49 48 47 47 47 47 47 48 48 48 49 50 51 53 55 59 64 69 74 79 81 82 86 93 105 123 158 191 210 227 237 241 242 243 245 247 247 248 248 250 252 254 256 259 262 267 272 274 272 267 262 258
165 161 162 158 156 159 159 158 157 154 155 153 147 143 138 131 123 117 107 97 92 85 80 77 73 69 65 61 60 59 56 54 53 51 50 50 48 46 45 45 45 45 46 46 45 45 47 48 49 51 53 54 58 60 63 70 77 81 85 89 94 100 110 123 133 156 200 222 233 235 235 236 238 237 235 234 236 237 237 240 250 258 262 266 268 265 262 264
163 161 162 159 158 161 160 160 160 157 158 157 152 147 140 133 128 117 106 99 91 83 79 77 73 68 63 61 60 58 56 54 52 50 49 48 47 45 44 43 43 43 44 44 43 43 45 46 46 47 49 50 53 55 56 61 68 73 78 82 89 96 105 110 111 110 109 123 166 190 198 204 206 207 205 197 196 207 211 211 227 243 254 268 278 279 278 278
161 161 162 160 159 162 163 163 162 159 159 158 154 148 141 137 131 118 108 102 93 84 78 73 71 69 63 60 59 57 55 53 51 49 48 46 45 43 42 41 41 41 41 41 41 41 42 42 42 44 46 47 50 53 54 56 60 65 69 70 72 81 93 106 118 127 130 140 161 176 187 195 196 195 196 189 188 208 224 226 232 241 249 259 269 274 275 274
162 162 163 162 162 164 166 165 162 160 160 159 154 149 144 142 134 122 115 108 97 88 80 71 69 67 62 59 58 57 55 52 49 47 45 43 42 40 39 38 37 37 36 36 37 38 39 39 38 40 43 44 46 49 50 51 51 54 56 55 54 55 55 64 95 141 157 174 190 199 210 216 213 214 219 217 211 219 235 245 249 252 256 262 270 277 281 283
163 163 164 165 164 166 169 168 166 164 162 160 158 152 148 147 140 131 126 118 104 93 82 70 64 62 60 58 57 55 53 50 46 44 41 39 38 37 36 35 35 34 32 32 33 34 35 38 37 36 38 41 42 43 46 47 48 51 53 51 49 44 37 27 10 1 203 229 234 232 233 234 231 232 237 239 236 233 238 245 251 257 261 264 269 275 283 290
164 163 165 166 166 168 172 173 170 167 164 162 162 158 152 152 148 141 137 132 117 100 83 69 60 56 55 55 53 51 50 46 43 40 38 36 35 34 33 32 32 30 29 28 29 30 31 34 36 34 34 37 37 37 40 41 41 40 41 40 37 29 21 7 343 325 309 282 270 264 261 261 259 255 252 253 255 254 251 253 258 263 266 267 271 277 285 293
166 165 167 168 169 171 175 176 173 170 168 167 165 163 159 159 157 151 147 144 130 109 91 72 57 51 48 49 49 47 46 43 40 37 34 32 31 30 29 29 28 27 25 25 25 26 27 31 33 32 31 32 32 30 30 30 29 26 21 16 9 357 345 338 321 306 304 302 292 286 282 279 274 266 262 262 267 271 271 270 271 275 277 280 284 287 290 291
168 167 168 170 172 174 177 180 178 173 170 170 168 166 167 168 164 160 157 156 149 126 100 76 55 44 41 41 43 42 41 38 36 33 30 28 27 26 26 25 24 22 22 21 22 22 24 27 29 29 27 27 26 24 22 21 19 14 10 5 0 351 343 334 314 303 305 307 302 294 286 276 268 267 268 268 269 272 274 276 278 281 285 287 289 290 291 292
170 169 169 171 174 177 180 184 183 177 172 173 174 172 176 177 170 166 168 170 169 157 114 79 54 38 30 30 32 33 32 31 29 26 24 24 23 22 22 21 20 18 18 18 19 20 21 24 27 26 23 22 21 20 18 17 15 12 11 11 7 359 355 350 334 317 310 308 302 292 286 282 277 277 280 280 277 275 275 278 281 283 285 287 288 289 290 292
173 171 172 173 176 180 183 186 187 184 177 176 177 178 183 184 175 170 174 179 183 184 148 80 48 29 18 17 18 20 21 21 21 19 18 18 17 17 17 17 16 15 14 14 15 17 19 21 23 23 20 17 16 16 16 16 17 17 19 20 15 5 0 359 355 340 319 310 303 288 285 289 293 292 290 286 281 280 280 280 281 282 283 286 287 288 289 289
175 174 175 177 180 183 186 188 190 190 183 178 178 180 187 189 181 176 179 182 189 201 198 100 37 12 3 3 5 7 9 10 10 11 11 11 11 12 13 13 12 11 11 11 12 14 16 18 21 20 17 13 12 13 16 18 21 21 21 20 16 6 2 3 4 352 329 318 319 308 294 295 299 298 295 294 290 288 288 286 285 284 285 286 287 288 288 288
179 178 178 179 183 187 190 191 193 193 190 185 181 181 186 190 185 182 184 187 192 211 231 252 318 337 343 351 354 357 359 1 2 3 4 5 6 8 8 8 8 8 8 8 9 11 13 15 18 18 13 9 9 13 17 20 23 22 18 17 13 7 3 4 8 2 345 335 336 331 319 316 315 305 300 303 305 302 297 296 296 293 290 288 288 289 292 294
182 181 181 182 185 190 194 195 196 196 196 195 190 185 187 190 187 186 189 197 208 223 245 262 279 303 326 339 344 348 351 353 355 356 358 360 2 3 4 4 4 4 4 5 6 8 10 12 13 13 9 5 9 14 17 20 22 20 17 14 11 7 4 5 10 9 359 350 349 347 344 344 339 326 320 323 326 325 300 288 287 288 290 294 294 297 301 305
185 183 183 186 189 193 195 197 199 200 200 201 199 194 192 194 193 193 198 211 223 236 252 265 277 293 314 330 336 339 344 347 350 351 353 355 357 359 0 0 1 1 1 1 3 6 8 8 9 8 5 3 7 13 14 15 17 16 14 12 8 5 3 4 8 11 8 1 356 356 1 8 5 354 352 350 347 345 333 315 311 309 309 315 318 323 326 327
189 187 187 191 195 197 198 199 202 204 205 207 207 204 201 201 202 205 213 223 233 244 255 266 277 289 306 321 327 332 338 342 345 347 349 351 352 354 356 357 358 358 357 358 1 4 6 6 6 6 2 1 6 10 10 11 12 12 10 8 7 4 2 3 5 8 10 8 2 359 0 9 15 12 9 9 4 357 352 350 353 351 347 348 350 353 350 345
192 191 191 193 196 199 201 202 204 207 209 211 213 214 212 210 212 217 224 231 239 248 256 266 276 286 299 312 320 326 332 336 339 342 344 346 348 350 352 354 356 355 354 355 358 2 4 4 4 3 0 0 5 7 7 7 7 8 6 3 3 2 360 1 2 5 8 8 7 6 3 6 14 15 11 12 13 10 6 4 5 6 4 4 4 2 356 349
196 196 195 194 195 198 201 205 208 211 212 214 217 220 220 220 222 227 232 238 243 250 257 266 275 283 293 304 312 318 325 329 333 336 339 342 344 347 350 351 352 351 351 351 355 359 2 3 3 0 358 0 3 4 4 4 3 2 1 359 1 2 0 359 358 1 6 7 8 11 11 11 14 15 11 11 16 20 18 15 14 13 10 9 5 359 355 350
199 200 198 197 198 198 201 206 210 213 216 217 220 223 226 228 230 234 239 243 247 252 257 265 273 281 289 298 305 312 318 323 327 331 335 338 341 343 345 347 348 349 349 348 351 355 358 0 2 358 355 357 0 1 3 3 0 358 357 357 358 359 1 3 1 0 3 5 6 11 15 16 16 16 12 11 16 21 22 22 21 17 12 6 1 358 354 349
203 204 203 201 201 200 202 206 210 214 217 220 223 226 229 232 236 239 243 247 250 254 258 265 271 278 286 294 300 307 313 317 322 326 330 334 337 339 341 343 345 347 346 345 348 352 354 356 359 358 354 355 357 360 2 3 1 359 357 358 360 1 4 7 8 6 5 4 4 8 13 15 16 15 12 11 14 17 19 20 19 14 10 4 359 356 352 348